Time,TemperatureF,DewpointF,PressureIn,WindDirection,WindDirectionDegrees,WindSpeedMPH,WindSpeedGustMPH,Humidity,HourlyPrecipIn,Conditions,Clouds,dailyrainin,SoftwareType,DateUTC
2013-03-20 00:02:00,59.0,34.0,29.77,NE,55,1.0,10.0,39,0.00,,,0.00,,2013-03-20 05:02:00,
2013-03-20 00:12:00,58.0,33.0,29.77,North,360,3.0,9.0,39,0.00,,,0.00,,2013-03-20 05:12:00,
2013-03-20 00:23:00,58.0,33.0,29.77,North,360,3.0,9.0,39,0.00,,,0.00,,2013-03-20 05:23:00,
2013-03-20 00:32:00,58.0,33.0,29.77,NNE,26,1.0,8.0,39,0.00,,,0.00,,2013-03-20 05:32:00,
2013-03-20 00:42:00,58.0,33.0,29.77,NNE,26,1.0,8.0,39,0.00,,,0.00,,2013-03-20 05:42:00,
2013-03-20 00:52:00,58.0,34.0,29.78,NNE,28,2.0,7.0,40,0.00,,,0.00,,2013-03-20 05:52:00,
2013-03-20 01:02:00,57.0,34.0,29.78,NE,40,0.0,7.0,42,0.00,,,0.00,,2013-03-20 06:02:00,
2013-03-20 01:12:00,57.0,34.0,29.78,NE,40,0.0,7.0,42,0.00,,,0.00,,2013-03-20 06:12:00,
2013-03-20 01:22:00,56.0,34.0,29.78,NNW,345,1.0,8.0,43,0.00,,,0.00,,2013-03-20 06:22:00,
2013-03-20 01:32:00,56.0,34.0,29.80,NNE,30,0.0,7.0,43,0.00,,,0.00,,2013-03-20 06:32:00,
2013-03-20 01:42:00,56.0,34.0,29.80,NNE,30,0.0,7.0,43,0.00,,,0.00,,2013-03-20 06:42:00,
2013-03-20 01:52:00,55.0,33.0,29.81,NNE,18,0.0,5.0,44,0.00,,,0.00,,2013-03-20 06:52:00,
2013-03-20 02:02:00,54.0,34.0,29.81,North,360,0.0,3.0,46,0.00,,,0.00,,2013-03-20 07:02:00,
2013-03-20 02:12:00,54.0,34.0,29.81,North,360,0.0,3.0,46,0.00,,,0.00,,2013-03-20 07:12:00,
2013-03-20 02:22:00,54.0,34.0,29.81,NNE,24,0.0,3.0,47,0.00,,,0.00,,2013-03-20 07:22:00,
2013-03-20 02:32:00,53.0,33.0,29.82,NNW,331,0.0,5.0,47,0.00,,,0.00,,2013-03-20 07:32:00,
2013-03-20 02:42:00,53.0,33.0,29.82,NNW,331,0.0,5.0,47,0.00,,,0.00,,2013-03-20 07:42:00,
2013-03-20 02:52:00,54.0,34.0,29.83,NW,320,1.0,6.0,46,0.00,,,0.00,,2013-03-20 07:52:00,
2013-03-20 03:02:00,54.0,34.0,29.84,NW,316,1.0,6.0,47,0.00,,,0.00,,2013-03-20 08:02:00,
2013-03-20 03:22:00,53.0,34.0,29.84,NW,312,1.0,5.0,48,0.00,,,0.00,,2013-03-20 08:22:00,
2013-03-20 03:32:00,53.0,35.0,29.85,NNW,332,1.0,5.0,50,0.00,,,0.00,,2013-03-20 08:32:00,
2013-03-20 03:42:00,53.0,35.0,29.85,NNW,332,1.0,5.0,50,0.00,,,0.00,,2013-03-20 08:42:00,
2013-03-20 03:52:00,52.0,35.0,29.84,NW,320,1.0,5.0,52,0.00,,,0.00,,2013-03-20 08:52:00,
2013-03-20 04:02:00,52.0,35.0,29.84,NNE,19,2.0,8.0,53,0.00,,,0.00,,2013-03-20 09:02:00,
2013-03-20 04:12:00,52.0,35.0,29.84,NNE,19,2.0,8.0,53,0.00,,,0.00,,2013-03-20 09:12:00,
2013-03-20 04:22:00,51.0,35.0,29.83,NNE,19,0.0,6.0,54,0.00,,,0.00,,2013-03-20 09:22:00,
2013-03-20 04:33:00,51.0,35.0,29.83,NNW,333,0.0,4.0,55,0.00,,,0.00,,2013-03-20 09:33:00,
2013-03-20 04:43:00,51.0,35.0,29.83,NNW,333,0.0,4.0,55,0.00,,,0.00,,2013-03-20 09:43:00,
2013-03-20 04:52:00,50.0,35.0,29.83,NNW,344,0.0,5.0,56,0.00,,,0.00,,2013-03-20 09:52:00,
2013-03-20 05:03:00,50.0,35.0,29.84,NNW,333,0.0,3.0,57,0.00,,,0.00,,2013-03-20 10:03:00,
2013-03-20 05:12:00,50.0,35.0,29.84,NNW,333,0.0,3.0,57,0.00,,,0.00,,2013-03-20 10:12:00,
2013-03-20 05:23:00,50.0,36.0,29.84,NNE,15,0.0,4.0,58,0.00,,,0.00,,2013-03-20 10:23:00,
2013-03-20 05:32:00,49.0,35.0,29.84,NNE,30,1.0,6.0,58,0.00,,,0.00,,2013-03-20 10:32:00,
2013-03-20 05:42:00,49.0,35.0,29.84,NNE,30,1.0,6.0,58,0.00,,,0.00,,2013-03-20 10:42:00,
2013-03-20 05:52:00,50.0,36.0,29.84,NNE,21,2.0,8.0,58,0.00,,,0.00,,2013-03-20 10:52:00,
2013-03-20 06:03:00,49.0,35.0,29.85,NNE,20,0.0,5.0,59,0.00,,,0.00,,2013-03-20 11:03:00,
2013-03-20 06:12:00,49.0,35.0,29.85,NNE,20,0.0,5.0,59,0.00,,,0.00,,2013-03-20 11:12:00,
2013-03-20 06:22:00,49.0,35.0,29.86,NNE,29,1.0,5.0,59,0.00,,,0.00,,2013-03-20 11:22:00,
2013-03-20 06:32:00,50.0,36.0,29.87,ENE,61,0.0,6.0,59,0.00,,,0.00,,2013-03-20 11:32:00,
2013-03-20 06:42:00,50.0,36.0,29.87,ENE,61,0.0,6.0,59,0.00,,,0.00,,2013-03-20 11:42:00,
2013-03-20 06:52:00,49.0,35.0,29.88,NW,324,1.0,4.0,59,0.00,,,0.00,,2013-03-20 11:52:00,
2013-03-20 07:02:00,49.0,35.0,29.89,NW,324,0.0,3.0,59,0.00,,,0.00,,2013-03-20 12:02:00,
2013-03-20 07:12:00,49.0,35.0,29.89,NW,324,0.0,3.0,59,0.00,,,0.00,,2013-03-20 12:12:00,
2013-03-20 07:22:00,49.0,35.0,29.89,NW,324,0.0,3.0,59,0.00,,,0.00,,2013-03-20 12:22:00,
2013-03-20 07:32:00,48.0,35.0,29.91,NNW,333,0.0,3.0,61,0.00,,,0.00,,2013-03-20 12:32:00,
2013-03-20 07:42:00,48.0,35.0,29.91,NNW,333,0.0,3.0,61,0.00,,,0.00,,2013-03-20 12:42:00,
2013-03-20 07:52:00,48.0,36.0,29.91,NW,318,0.0,5.0,62,0.00,,,0.00,,2013-03-20 12:52:00,
2013-03-20 08:03:00,47.0,35.0,29.92,NW,315,0.0,3.0,64,0.00,,,0.00,,2013-03-20 13:03:00,
2013-03-20 08:12:00,47.0,35.0,29.92,NW,315,0.0,3.0,64,0.00,,,0.00,,2013-03-20 13:12:00,
2013-03-20 08:22:00,47.0,35.0,29.93,NNW,334,0.0,2.0,64,0.00,,,0.00,,2013-03-20 13:22:00,
2013-03-20 08:32:00,48.0,36.0,29.93,North,10,1.0,4.0,63,0.00,,,0.00,,2013-03-20 13:32:00,
2013-03-20 08:42:00,48.0,36.0,29.93,North,10,1.0,4.0,63,0.00,,,0.00,,2013-03-20 13:42:00,
2013-03-20 08:52:00,49.0,37.0,29.94,WNW,290,0.0,4.0,62,0.00,,,0.00,,2013-03-20 13:52:00,
2013-03-20 09:03:00,50.0,37.0,29.95,NW,311,2.0,5.0,61,0.00,,,0.00,,2013-03-20 14:03:00,
2013-03-20 09:12:00,50.0,37.0,29.95,NW,311,2.0,5.0,61,0.00,,,0.00,,2013-03-20 14:12:00,
2013-03-20 09:23:00,51.0,37.0,29.95,NNE,24,3.0,7.0,58,0.00,,,0.00,,2013-03-20 14:23:00,
2013-03-20 09:33:00,52.0,37.0,29.96,NE,41,1.0,6.0,57,0.00,,,0.00,,2013-03-20 14:33:00,
2013-03-20 09:42:00,52.0,37.0,29.96,NE,41,1.0,6.0,57,0.00,,,0.00,,2013-03-20 14:42:00,
2013-03-20 09:52:00,53.0,36.0,29.96,NNW,338,1.0,7.0,53,0.00,,,0.00,,2013-03-20 14:52:00,
2013-03-20 10:02:00,53.0,36.0,29.97,NNW,348,4.0,10.0,53,0.00,,,0.00,,2013-03-20 15:02:00,
2013-03-20 10:12:00,54.0,37.0,29.97,NNE,24,2.0,8.0,52,0.00,,,0.00,,2013-03-20 15:12:00,
2013-03-20 10:22:00,54.0,37.0,29.97,NNE,24,2.0,8.0,52,0.00,,,0.00,,2013-03-20 15:22:00,
2013-03-20 10:33:00,56.0,38.0,29.97,North,355,2.0,7.0,51,0.00,,,0.00,,2013-03-20 15:33:00,
2013-03-20 10:43:00,56.0,38.0,29.97,North,355,2.0,7.0,51,0.00,,,0.00,,2013-03-20 15:43:00,
2013-03-20 10:52:00,57.0,37.0,29.97,NNE,28,0.0,5.0,47,0.00,,,0.00,,2013-03-20 15:52:00,
2013-03-20 11:03:00,58.0,36.0,29.97,NNE,32,0.0,5.0,44,0.00,,,0.00,,2013-03-20 16:03:00,
2013-03-20 11:12:00,58.0,36.0,29.97,NNE,32,0.0,5.0,44,0.00,,,0.00,,2013-03-20 16:12:00,
2013-03-20 11:23:00,59.0,38.0,29.97,NNW,329,0.0,6.0,45,0.00,,,0.00,,2013-03-20 16:23:00,
2013-03-20 11:33:00,60.0,36.0,29.96,North,11,1.0,6.0,41,0.00,,,0.00,,2013-03-20 16:33:00,
2013-03-20 11:42:00,60.0,36.0,29.96,North,11,1.0,6.0,41,0.00,,,0.00,,2013-03-20 16:42:00,
2013-03-20 11:52:00,61.0,37.0,29.96,NE,49,1.0,5.0,41,0.00,,,0.00,,2013-03-20 16:52:00,
2013-03-20 12:03:00,62.0,35.0,29.96,WNW,302,2.0,8.0,37,0.00,,,0.00,,2013-03-20 17:03:00,
2013-03-20 12:12:00,62.0,35.0,29.96,WNW,302,2.0,8.0,37,0.00,,,0.00,,2013-03-20 17:12:00,
2013-03-20 12:22:00,63.0,35.0,29.96,NNE,23,1.0,9.0,35,0.00,,,0.00,,2013-03-20 17:22:00,
2013-03-20 12:32:00,64.0,34.0,29.96,North,9,2.0,10.0,32,0.00,,,0.00,,2013-03-20 17:32:00,
2013-03-20 12:42:00,64.0,34.0,29.96,North,9,2.0,10.0,32,0.00,,,0.00,,2013-03-20 17:42:00,
2013-03-20 12:52:00,64.0,28.0,29.95,NNW,327,3.0,11.0,26,0.00,,,0.00,,2013-03-20 17:52:00,
2013-03-20 13:02:00,65.0,26.0,29.95,NE,39,4.0,13.0,23,0.00,,,0.00,,2013-03-20 18:02:00,
2013-03-20 13:12:00,65.0,26.0,29.95,NE,39,4.0,13.0,23,0.00,,,0.00,,2013-03-20 18:12:00,
2013-03-20 13:22:00,65.0,29.0,29.95,NNE,17,4.0,10.0,26,0.00,,,0.00,,2013-03-20 18:22:00,
2013-03-20 13:33:00,65.0,25.0,29.94,NNE,30,5.0,13.0,22,0.00,,,0.00,,2013-03-20 18:33:00,
2013-03-20 13:42:00,65.0,25.0,29.94,NNE,30,5.0,13.0,22,0.00,,,0.00,,2013-03-20 18:42:00,
2013-03-20 13:52:00,65.0,26.0,29.93,West,277,2.0,7.0,23,0.00,,,0.00,,2013-03-20 18:52:00,
2013-03-20 14:02:00,65.0,29.0,29.92,NE,37,5.0,12.0,26,0.00,,,0.00,,2013-03-20 19:02:00,
2013-03-20 14:12:00,65.0,29.0,29.92,NE,37,5.0,12.0,26,0.00,,,0.00,,2013-03-20 19:12:00,
2013-03-20 14:22:00,66.0,32.0,29.91,WNW,294,2.0,8.0,28,0.00,,,0.00,,2013-03-20 19:22:00,
2013-03-20 14:32:00,67.0,31.0,29.89,NE,43,6.0,12.0,26,0.00,,,0.00,,2013-03-20 19:32:00,
2013-03-20 14:42:00,67.0,31.0,29.89,NE,43,6.0,12.0,26,0.00,,,0.00,,2013-03-20 19:42:00,
2013-03-20 14:52:00,67.0,31.0,29.88,East,82,3.0,9.0,26,0.00,,,0.00,,2013-03-20 19:52:00,
2013-03-20 15:02:00,67.0,32.0,29.87,NE,50,2.0,10.0,27,0.00,,,0.00,,2013-03-20 20:02:00,
2013-03-20 15:13:00,67.0,32.0,29.87,NE,50,2.0,10.0,27,0.00,,,0.00,,2013-03-20 20:13:00,
2013-03-20 15:22:00,68.0,32.0,29.86,NW,312,2.0,10.0,26,0.00,,,0.00,,2013-03-20 20:22:00,
2013-03-20 15:32:00,68.0,32.0,29.85,West,261,2.0,10.0,26,0.00,,,0.00,,2013-03-20 20:32:00,
2013-03-20 15:42:00,68.0,32.0,29.85,West,261,2.0,10.0,26,0.00,,,0.00,,2013-03-20 20:42:00,
2013-03-20 15:52:00,67.0,31.0,29.85,NW,304,5.0,9.0,26,0.00,,,0.00,,2013-03-20 20:52:00,
2013-03-20 16:02:00,68.0,32.0,29.84,NE,50,3.0,11.0,26,0.00,,,0.00,,2013-03-20 21:02:00,
2013-03-20 16:12:00,68.0,32.0,29.84,NE,50,3.0,11.0,26,0.00,,,0.00,,2013-03-20 21:12:00,
2013-03-20 16:22:00,68.0,30.0,29.84,WSW,254,1.0,5.0,24,0.00,,,0.00,,2013-03-20 21:22:00,
2013-03-20 16:33:00,67.0,30.0,29.83,North,355,0.0,9.0,25,0.00,,,0.00,,2013-03-20 21:33:00,
2013-03-20 16:42:00,67.0,30.0,29.83,North,355,0.0,9.0,25,0.00,,,0.00,,2013-03-20 21:42:00,
2013-03-20 16:52:00,67.0,30.0,29.82,North,5,2.0,10.0,25,0.00,,,0.00,,2013-03-20 21:52:00,
2013-03-20 17:03:00,68.0,31.0,29.81,East,87,2.0,5.0,25,0.00,,,0.00,,2013-03-20 22:03:00,
2013-03-20 17:12:00,68.0,31.0,29.81,East,87,2.0,5.0,25,0.00,,,0.00,,2013-03-20 22:12:00,
2013-03-20 17:23:00,68.0,30.0,29.81,NNW,338,1.0,9.0,24,0.00,,,0.00,,2013-03-20 22:23:00,
2013-03-20 17:33:00,68.0,32.0,29.80,NNW,342,1.0,7.0,26,0.00,,,0.00,,2013-03-20 22:33:00,
2013-03-20 17:42:00,68.0,32.0,29.80,NNW,342,1.0,7.0,26,0.00,,,0.00,,2013-03-20 22:42:00,
2013-03-20 17:52:00,67.0,29.0,29.79,SE,128,4.0,7.0,24,0.00,,,0.00,,2013-03-20 22:52:00,
2013-03-20 18:02:00,66.0,29.0,29.79,NNW,329,0.0,5.0,25,0.00,,,0.00,,2013-03-20 23:02:00,
2013-03-20 18:12:00,66.0,29.0,29.79,NNW,329,0.0,5.0,25,0.00,,,0.00,,2013-03-20 23:12:00,
2013-03-20 18:22:00,66.0,29.0,29.79,SSE,157,1.0,4.0,25,0.00,,,0.00,,2013-03-20 23:22:00,
2013-03-20 18:32:00,65.0,29.0,29.78,ENE,73,2.0,7.0,26,0.00,,,0.00,,2013-03-20 23:32:00,
2013-03-20 18:42:00,65.0,29.0,29.78,ENE,73,2.0,7.0,26,0.00,,,0.00,,2013-03-20 23:42:00,
2013-03-20 18:52:00,65.0,29.0,29.77,NNW,330,2.0,7.0,26,0.00,,,0.00,,2013-03-20 23:52:00,
2013-03-20 19:02:00,64.0,29.0,29.76,North,360,0.0,6.0,27,0.00,,,0.00,,2013-03-21 00:02:00,
2013-03-20 19:12:00,64.0,29.0,29.76,North,360,0.0,6.0,27,0.00,,,0.00,,2013-03-21 00:12:00,
2013-03-20 19:23:00,64.0,28.0,29.76,ENE,68,1.0,7.0,26,0.00,,,0.00,,2013-03-21 00:23:00,
2013-03-20 19:32:00,63.0,29.0,29.76,NE,40,1.0,4.0,28,0.00,,,0.00,,2013-03-21 00:32:00,
2013-03-20 19:42:00,63.0,29.0,29.76,NE,40,1.0,4.0,28,0.00,,,0.00,,2013-03-21 00:42:00,
2013-03-20 19:52:00,62.0,29.0,29.75,NNE,26,1.0,3.0,29,0.00,,,0.00,,2013-03-21 00:52:00,
2013-03-20 20:02:00,61.0,29.0,29.76,NNE,15,0.0,3.0,30,0.00,,,0.00,,2013-03-21 01:02:00,
2013-03-20 20:12:00,61.0,29.0,29.76,NNE,15,0.0,3.0,30,0.00,,,0.00,,2013-03-21 01:12:00,
2013-03-20 20:22:00,60.0,29.0,29.76,ESE,107,0.0,3.0,31,0.00,,,0.00,,2013-03-21 01:22:00,
2013-03-20 20:32:00,59.0,30.0,29.76,ESE,105,0.0,2.0,33,0.00,,,0.00,,2013-03-21 01:32:00,
2013-03-20 20:42:00,59.0,30.0,29.76,ESE,105,0.0,2.0,33,0.00,,,0.00,,2013-03-21 01:42:00,
2013-03-20 20:52:00,59.0,30.0,29.76,East,93,0.0,0.0,33,0.00,,,0.00,,2013-03-21 01:52:00,
2013-03-20 21:02:00,58.0,29.0,29.75,East,101,0.0,3.0,33,0.00,,,0.00,,2013-03-21 02:02:00,
2013-03-20 21:12:00,58.0,29.0,29.75,East,101,0.0,3.0,33,0.00,,,0.00,,2013-03-21 02:12:00,
2013-03-20 21:22:00,57.0,30.0,29.74,East,101,0.0,1.0,35,0.00,,,0.00,,2013-03-21 02:22:00,
2013-03-20 21:32:00,57.0,29.0,29.74,East,92,0.0,2.0,34,0.00,,,0.00,,2013-03-21 02:32:00,
2013-03-20 21:42:00,57.0,29.0,29.74,East,92,0.0,2.0,34,0.00,,,0.00,,2013-03-21 02:42:00,
2013-03-20 21:51:00,57.0,29.0,29.74,East,92,0.0,2.0,34,0.00,,,0.00,,2013-03-21 02:51:00,
2013-03-20 22:02:00,56.0,29.0,29.73,East,100,0.0,3.0,36,0.00,,,0.00,,2013-03-21 03:02:00,
2013-03-20 22:12:00,56.0,29.0,29.73,East,100,0.0,3.0,36,0.00,,,0.00,,2013-03-21 03:12:00,
2013-03-20 22:22:00,55.0,29.0,29.73,East,97,0.0,2.0,37,0.00,,,0.00,,2013-03-21 03:22:00,
2013-03-20 22:33:00,54.0,31.0,29.73,East,97,0.0,0.0,41,0.00,,,0.00,,2013-03-21 03:33:00,
2013-03-20 22:43:00,54.0,31.0,29.73,East,97,0.0,0.0,41,0.00,,,0.00,,2013-03-21 03:43:00,
2013-03-20 22:53:00,54.0,31.0,29.72,ESE,103,1.0,3.0,41,0.00,,,0.00,,2013-03-21 03:53:00,
2013-03-20 23:03:00,54.0,31.0,29.71,East,85,1.0,3.0,41,0.00,,,0.00,,2013-03-21 04:03:00,
2013-03-20 23:13:00,54.0,31.0,29.71,East,85,1.0,3.0,41,0.00,,,0.00,,2013-03-21 04:13:00,
2013-03-20 23:23:00,54.0,32.0,29.71,East,95,0.0,3.0,43,0.00,,,0.00,,2013-03-21 04:23:00,
2013-03-20 23:33:00,53.0,32.0,29.72,ESE,102,0.0,1.0,44,0.00,,,0.00,,2013-03-21 04:33:00,
2013-03-20 23:43:00,53.0,32.0,29.72,ESE,102,0.0,1.0,44,0.00,,,0.00,,2013-03-21 04:43:00,
2013-03-20 23:53:00,53.0,33.0,29.71,East,101,0.0,0.0,47,0.00,,,0.00,,2013-03-21 04:53:00,